QPF
0.05 0.04 0.05 0.08 0.06 0.05 0.05 0.03 0.03 0.04 0.04 0.05 0.05 0.03 0.04 0.05 0.05 0.04 0.04 0.04 0.03 0.03 0.03 0.03 0.03 0.03 0.02 0.02 0.03 0.04 0.04 0.04 0.03 0.03 0.03 0.03 0.03 0.03 0.03 0.04 0.05 0.07 0.05
0.03 0.02 0.03 0.04 0.05 0.05 0.04 0.04 0.04 0.03 0.04 0.06 0.05 0.03 0.03 0.05 0.06 0.05 0.04 0.04 0.04 0.04 0.03 0.03 0.03 0.03 0.02 0.02 0.03 0.03 0.02 0.02 0.03 0.03 0.04 0.04 0.04 0.04 0.03 0.03 0.04 0.05 0.05
0.01 0.01 0.02 0.03 0.06 0.05 0.04 0.04 0.03 0.04 0.04 0.04 0.05 0.03 0.04 0.05 0.05 0.06 0.05 0.05 0.05 0.06 0.05 0.03 0.02 0.02 0.02 0.02 0.03 0.02 0.01 0.01 0.02 0.05 0.08 0.09 0.06 0.03 0.03 0.03 0.03 0.03 0.03
0.01 0.02 0.02 0.03 0.06 0.06 0.04 0.03 0.03 0.03 0.03 0.05 0.07 0.04 0.05 0.05 0.05 0.05 0.04 0.04 0.05 0.05 0.04 0.04 0.03 0.03 0.03 0.02 0.02 0.01 0.01 0.01 0.03 0.08 0.11 0.10 0.07 0.04 0.03 0.02 0.03 0.03 0.03
0.02 0.03 0.02 0.03 0.05 0.05 0.02 0.03 0.04 0.04 0.04 0.05 0.06 0.05 0.05 0.04 0.04 0.04 0.04 0.04 0.04 0.04 0.05 0.06 0.05 0.05 0.03 0.01 0.01 0.01 0.01 0.02 0.05 0.07 0.07 0.07 0.06 0.05 0.03 0.02 0.03 0.04 0.04
0.03 0.04 0.04 0.05 0.05 0.03 0.04 0.04 0.05 0.05 0.06 0.07 0.07 0.05 0.04 0.04 0.04 0.05 0.05 0.04 0.04 0.03 0.03 0.04 0.05 0.04 0.02 0.01 0.01 0.01 0.01 0.03 0.05 0.06 0.06 0.07 0.07 0.04 0.03 0.03 0.04 0.05 0.06
0.02 0.03 0.03 0.06 0.04 0.03 0.05 0.05 0.04 0.04 0.06 0.09 0.08 0.07 0.06 0.06 0.05 0.06 0.06 0.06 0.06 0.04 0.04 0.05 0.05 0.03 0.02 0.01 0.01 0.02 0.02 0.04 0.07 0.07 0.07 0.07 0.05 0.04 0.03 0.02 0.04 0.04 0.05
0.02 0.02 0.03 0.04 0.04 0.04 0.03 0.04 0.03 0.04 0.04 0.06 0.07 0.10 0.10 0.06 0.05 0.05 0.06 0.06 0.06 0.05 0.04 0.04 0.04 0.04 0.03 0.02 0.02 0.02 0.03 0.04 0.05 0.05 0.05 0.04 0.03 0.04 0.04 0.04 0.04 0.04 0.06
0.01 0.03 0.05 0.03 0.02 0.02 0.02 0.03 0.04 0.05 0.05 0.05 0.06 0.12 0.11 0.06 0.04 0.04 0.04 0.05 0.05 0.04 0.05 0.04 0.03 0.03 0.03 0.03 0.02 0.02 0.03 0.04 0.04 0.04 0.04 0.03 0.05 0.07 0.06 0.04 0.04 0.05 0.07
0.01 0.02 0.04 0.04 0.04 0.04 0.03 0.03 0.03 0.04 0.05 0.05 0.06 0.10 0.10 0.07 0.04 0.04 0.04 0.03 0.04 0.04 0.04 0.04 0.03 0.03 0.03 0.02 0.01 0.01 0.02 0.03 0.03 0.03 0.04 0.05 0.06 0.08 0.08 0.08 0.08 0.07 0.07
0.02 0.03 0.05 0.05 0.05 0.05 0.05 0.02 0.03 0.03 0.04 0.05 0.09 0.10 0.10 0.07 0.03 0.03 0.03 0.03 0.03 0.03 0.02 0.03 0.03 0.02 0.03 0.02 0.01 0.01 0.02 0.03 0.04 0.03 0.05 0.08 0.07 0.10 0.10 0.08 0.08 0.07 0.05
0.04 0.05 0.07 0.04 0.03 0.04 0.03 0.03 0.05 0.04 0.05 0.06 0.08 0.09 0.08 0.05 0.04 0.03 0.03 0.04 0.04 0.04 0.03 0.03 0.03 0.02 0.02 0.03 0.02 0.02 0.05 0.05 0.05 0.04 0.06 0.09 0.08 0.08 0.08 0.09 0.09 0.08 0.07
0.03 0.04 0.04 0.03 0.01 0.02 0.03 0.02 0.03 0.04 0.05 0.06 0.05 0.05 0.07 0.06 0.05 0.04 0.03 0.03 0.04 0.04 0.03 0.03 0.03 0.02 0.02 0.02 0.02 0.04 0.05 0.04 0.05 0.04 0.06 0.08 0.08 0.08 0.09 0.11 0.12 0.14 0.14
0.05 0.05 0.03 0.02 0.01 0.01 0.02 0.01 0.02 0.02 0.04 0.04 0.04 0.03 0.05 0.06 0.06 0.05 0.03 0.03 0.04 0.05 0.03 0.02 0.02 0.02 0.01 0.01 0.01 0.02 0.02 0.03 0.04 0.03 0.05 0.07 0.07 0.08 0.10 0.14 0.16 0.18 0.18
0.04 0.03 0.02 0.02 0.01 0.01 0.01 0.01 0.03 0.03 0.03 0.03 0.03 0.03 0.04 0.07 0.07 0.06 0.05 0.04 0.03 0.03 0.03 0.02 0.02 0.02 0.01 0.01 0.01 0.01 0.01 0.01 0.01 0.02 0.03 0.03 0.04 0.07 0.09 0.09 0.09 0.11 0.16
0.03 0.02 0.01 0.01 0.01 0.01 0.01 0.01 0.02 0.02 0.02 0.02 0.03 0.04 0.04 0.06 0.07 0.06 0.05 0.02 0.01 0.02 0.02 0.02 0.02 0.02 0.01 0.00 0.01 0.01 0.01 0.00 0.01 0.02 0.03 0.03 0.03 0.04 0.05 0.06 0.07 0.09 0.14
0.03 0.03 0.02 0.01 0.01 0.01 0.01 0.01 0.01 0.01 0.01 0.01 0.01 0.01 0.02 0.02 0.03 0.04 0.04 0.02 0.02 0.02 0.02 0.02 0.02 0.01 0.01 0.01 0.01 0.01 0.01 0.01 0.01 0.03 0.02 0.02 0.02 0.03 0.03 0.04 0.06 0.07 0.10
0.02 0.02 0.01 0.01 0.01 0.01 0.02 0.02 0.01 0.01 0.00 0.01 0.01 0.01 0.00 0.01 0.01 0.02 0.04 0.02 0.01 0.01 0.02 0.02 0.02 0.02 0.01 0.01 0.01 0.01 0.01 0.01 0.01 0.03 0.04 0.03 0.01 0.01 0.01 0.01 0.02 0.03 0.05
0.01 0.01 0.01 0.01 0.01 0.01 0.01 0.01 0.02 0.01 0.01 0.01 0.01 0.01 0.00 0.01 0.01 0.02 0.04 0.03 0.02 0.02 0.02 0.02 0.01 0.01 0.01 0.01 0.01 0.01 0.01 0.01 0.00 0.01 0.02 0.02 0.01 0.00 0.00 0.00 0.01 0.01 0.02
0.01 0.00 0.01 0.01 0.01 0.01 0.01 0.02 0.02 0.02 0.02 0.03 0.02 0.01 0.00 0.01 0.01 0.03 0.05 0.03 0.03 0.03 0.02 0.02 0.02 0.02 0.02 0.02 0.01 0.01 0.01 0.00 0.01 0.01 0.00 0.01 0.01 0.01 0.00 0.00 0.01 0.01 0.01
0.01 0.01 0.02 0.02 0.02 0.01 0.02 0.03 0.03 0.03 0.02 0.03 0.02 0.01 0.00 0.01 0.01 0.02 0.03 0.04 0.03 0.03 0.03 0.03 0.03 0.04 0.04 0.02 0.01 0.01 0.00 0.01 0.01 0.01 0.00 0.00 0.00 0.00 0.00 0.00 0.01 0.01 0.00
0.01 0.01 0.03 0.03 0.02 0.02 0.02 0.02 0.03 0.03 0.02 0.02 0.01 0.01 0.00 0.01 0.02 0.02 0.01 0.02 0.02 0.03 0.03 0.03 0.03 0.05 0.04 0.02 0.03 0.02 0.03 0.03 0.01 0.00 0.00 0.00 0.00 0.00 0.00 0.00 0.00 0.00 0.00
0.01 0.01 0.01 0.01 0.01 0.02 0.02 0.03 0.03 0.05 0.04 0.04 0.03 0.02 0.01 0.01 0.03 0.02 0.01 0.01 0.01 0.01 0.01 0.01 0.01 0.02 0.02 0.01 0.01 0.02 0.04 0.05 0.03 0.01 0.00 0.00 0.00 0.00 0.00 0.00 0.00 0.00 0.00
0.01 0.01 0.01 0.01 0.01 0.01 0.01 0.02 0.04 0.05 0.06 0.05 0.03 0.01 0.01 0.02 0.02 0.02 0.02 0.02 0.01 0.00 0.01 0.01 0.01 0.02 0.03 0.03 0.03 0.01 0.02 0.02 0.02 0.03 0.01 0.01 0.00 0.00 0.00 0.00 0.00 0.00 0.00
0.02 0.01 0.02 0.01 0.01 0.00 0.01 0.02 0.04 0.05 0.05 0.03 0.01 0.01 0.01 0.01 0.02 0.02 0.03 0.02 0.01 0.01 0.01 0.01 0.01 0.02 0.02 0.02 0.02 0.02 0.02 0.01 0.01 0.03 0.03 0.02 0.01 0.00 0.00 0.00 0.00 0.00 0.00
0.02 0.02 0.02 0.02 0.02 0.01 0.01 0.01 0.01 0.02 0.02 0.02 0.02 0.01 0.02 0.02 0.02 0.01 0.01 0.02 0.02 0.01 0.01 0.01 0.02 0.02 0.01 0.01 0.01 0.01 0.01 0.01 0.02 0.03 0.02 0.02 0.02 0.01 0.01 0.00 0.00 0.00 0.00
MSLP
1015.91 1015.10 1014.34 1013.71 1013.26 1012.99 1012.87 1012.84 1012.82 1012.78 1012.67 1012.53 1012.37 1012.24 1012.18 1012.20 1012.29 1012.41 1012.53 1012.60 1012.59 1012.50 1012.34 1012.14 1011.93 1011.74 1011.57 1011.42 1011.29 1011.15 1011.00 1010.85 1010.72 1010.62 1010.58 1010.61 1010.70 1010.83 1010.97 1011.09 1011.16 1011.18 1011.17
1015.91 1015.13 1014.40 1013.81 1013.39 1013.15 1013.03 1012.98 1012.94 1012.87 1012.74 1012.58 1012.43 1012.33 1012.31 1012.37 1012.51 1012.67 1012.82 1012.89 1012.88 1012.77 1012.59 1012.36 1012.12 1011.89 1011.68 1011.48 1011.28 1011.07 1010.84 1010.62 1010.42 1010.28 1010.23 1010.27 1010.40 1010.59 1010.80 1010.99 1011.14 1011.23 1011.27
1015.85 1015.12 1014.45 1013.91 1013.54 1013.33 1013.22 1013.17 1013.12 1013.02 1012.88 1012.72 1012.59 1012.51 1012.53 1012.63 1012.79 1012.97 1013.11 1013.18 1013.15 1013.01 1012.81 1012.55 1012.29 1012.03 1011.77 1011.52 1011.25 1010.95 1010.64 1010.33 1010.06 1009.88 1009.80 1009.85 1010.01 1010.26 1010.55 1010.84 1011.08 1011.26 1011.38
1015.73 1015.07 1014.47 1014.01 1013.70 1013.53 1013.45 1013.41 1013.35 1013.25 1013.12 1012.97 1012.85 1012.80 1012.84 1012.96 1013.13 1013.31 1013.43 1013.47 1013.40 1013.24 1013.01 1012.74 1012.46 1012.18 1011.89 1011.59 1011.26 1010.89 1010.49 1010.10 1009.75 1009.51 1009.40 1009.44 1009.62 1009.92 1010.28 1010.65 1010.99 1011.27 1011.47
1015.55 1014.97 1014.46 1014.08 1013.85 1013.73 1013.69 1013.67 1013.63 1013.54 1013.42 1013.30 1013.21 1013.19 1013.24 1013.37 1013.53 1013.68 1013.77 1013.77 1013.67 1013.49 1013.24 1012.97 1012.68 1012.40 1012.10 1011.77 1011.39 1010.96 1010.49 1010.01 1009.59 1009.28 1009.12 1009.14 1009.32 1009.65 1010.05 1010.49 1010.91 1011.27 1011.57
1015.34 1014.84 1014.42 1014.13 1013.97 1013.92 1013.92 1013.93 1013.91 1013.86 1013.77 1013.68 1013.62 1013.63 1013.71 1013.83 1013.98 1014.10 1014.15 1014.11 1013.98 1013.78 1013.53 1013.26 1013.00 1012.72 1012.43 1012.09 1011.69 1011.21 1010.69 1010.15 1009.66 1009.28 1009.06 1009.03 1009.19 1009.50 1009.92 1010.39 1010.86 1011.29 1011.67
1015.15 1014.72 1014.38 1014.17 1014.07 1014.07 1014.12 1014.16 1014.18 1014.15 1014.10 1014.06 1014.05 1014.09 1014.19 1014.33 1014.46 1014.55 1014.57 1014.50 1014.35 1014.14 1013.89 1013.65 1013.40 1013.16 1012.90 1012.57 1012.17 1011.67 1011.11 1010.53 1009.99 1009.55 1009.27 1009.17 1009.27 1009.54 1009.92 1010.38 1010.86 1011.33 1011.76
1015.03 1014.64 1014.37 1014.21 1014.16 1014.20 1014.27 1014.34 1014.39 1014.40 1014.40 1014.41 1014.45 1014.54 1014.66 1014.81 1014.94 1015.02 1015.02 1014.92 1014.76 1014.55 1014.32 1014.10 1013.90 1013.70 1013.46 1013.17 1012.78 1012.30 1011.74 1011.14 1010.56 1010.07 1009.73 1009.56 1009.59 1009.77 1010.09 1010.49 1010.94 1011.39 1011.84
1015.00 1014.66 1014.41 1014.29 1014.27 1014.31 1014.40 1014.48 1014.54 1014.59 1014.63 1014.69 1014.78 1014.92 1015.09 1015.26 1015.40 1015.47 1015.46 1015.36 1015.19 1014.99 1014.78 1014.59 1014.43 1014.27 1014.08 1013.83 1013.49 1013.04 1012.50 1011.91 1011.33 1010.81 1010.42 1010.18 1010.11 1010.20 1010.41 1010.72 1011.09 1011.50 1011.92
1015.09 1014.77 1014.54 1014.43 1014.41 1014.45 1014.52 1014.59 1014.66 1014.72 1014.80 1014.90 1015.05 1015.24 1015.45 1015.65 1015.80 1015.88 1015.87 1015.78 1015.62 1015.43 1015.25 1015.09 1014.96 1014.84 1014.70 1014.50 1014.21 1013.81 1013.32 1012.77 1012.20 1011.69 1011.26 1010.97 1010.81 1010.80 1010.90 1011.09 1011.36 1011.69 1012.06
1015.27 1014.97 1014.76 1014.64 1014.60 1014.62 1014.66 1014.71 1014.76 1014.83 1014.93 1015.07 1015.26 1015.48 1015.73 1015.96 1016.13 1016.23 1016.23 1016.15 1016.00 1015.84 1015.68 1015.56 1015.46 1015.39 1015.29 1015.15 1014.91 1014.58 1014.16 1013.66 1013.15 1012.65 1012.22 1011.89 1011.66 1011.55 1011.54 1011.62 1011.77 1011.99 1012.28
1015.49 1015.23 1015.03 1014.91 1014.85 1014.83 1014.84 1014.85 1014.89 1014.95 1015.05 1015.21 1015.42 1015.68 1015.94 1016.19 1016.39 1016.50 1016.52 1016.46 1016.35 1016.21 1016.09 1016.00 1015.95 1015.91 1015.86 1015.77 1015.60 1015.34 1014.99 1014.58 1014.12 1013.67 1013.25 1012.90 1012.63 1012.44 1012.33 1012.30 1012.34 1012.46 1012.66
1015.71 1015.50 1015.33 1015.22 1015.14 1015.10 1015.07 1015.06 1015.07 1015.11 1015.21 1015.37 1015.59 1015.84 1016.12 1016.37 1016.58 1016.71 1016.76 1016.73 1016.66 1016.57 1016.49 1016.44 1016.43 1016.44 1016.44 1016.41 1016.30 1016.12 1015.85 1015.52 1015.13 1014.74 1014.35 1014.00 1013.70 1013.46 1013.28 1013.15 1013.10 1013.12 1013.23
1015.87 1015.72 1015.60 1015.50 1015.44 1015.39 1015.35 1015.32 1015.32 1015.35 1015.44 1015.58 1015.78 1016.03 1016.29 1016.54 1016.74 1016.89 1016.96 1016.98 1016.95 1016.92 1016.91 1016.92 1016.96 1017.02 1017.08 1017.10 1017.07 1016.95 1016.77 1016.51 1016.20 1015.86 1015.52 1015.18 1014.87 1014.60 1014.36 1014.17 1014.04 1013.98 1014.00
1015.94 1015.86 1015.79 1015.75 1015.71 1015.69 1015.66 1015.65 1015.65 1015.68 1015.75 1015.88 1016.05 1016.26 1016.49 1016.71 1016.90 1017.05 1017.16 1017.22 1017.26 1017.30 1017.36 1017.44 1017.55 1017.68 1017.79 1017.88 1017.91 1017.87 1017.75 1017.57 1017.33 1017.05 1016.74 1016.43 1016.12 1015.83 1015.56 1015.32 1015.14 1015.02 1014.97
1015.93 1015.92 1015.92 1015.93 1015.95 1015.98 1016.00 1016.03 1016.06 1016.10 1016.17 1016.28 1016.41 1016.57 1016.74 1016.92 1017.09 1017.24 1017.37 1017.49 1017.60 1017.72 1017.86 1018.02 1018.21 1018.40 1018.58 1018.73 1018.82 1018.85 1018.80 1018.68 1018.51 1018.28 1018.01 1017.72 1017.42 1017.12 1016.83 1016.57 1016.35 1016.18 1016.09
1015.89 1015.92 1015.98 1016.06 1016.15 1016.25 1016.35 1016.45 1016.53 1016.61 1016.69 1016.77 1016.86 1016.96 1017.07 1017.19 1017.32 1017.46 1017.61 1017.77 1017.95 1018.15 1018.37 1018.62 1018.88 1019.14 1019.38 1019.59 1019.74 1019.83 1019.85 1019.80 1019.68 1019.50 1019.27 1019.01 1018.72 1018.42 1018.13 1017.86 1017.62 1017.42 1017.29
1015.86 1015.93 1016.04 1016.18 1016.34 1016.53 1016.72 1016.90 1017.05 1017.18 1017.27 1017.34 1017.38 1017.41 1017.45 1017.50 1017.59 1017.70 1017.85 1018.05 1018.28 1018.55 1018.85 1019.17 1019.49 1019.81 1020.10 1020.37 1020.58 1020.73 1020.82 1020.83 1020.78 1020.66 1020.48 1020.26 1019.99 1019.71 1019.42 1019.15 1018.90 1018.69 1018.53
1015.91 1015.99 1016.12 1016.30 1016.54 1016.80 1017.08 1017.36 1017.59 1017.77 1017.89 1017.94 1017.94 1017.91 1017.87 1017.85 1017.88 1017.96 1018.10 1018.32 1018.59 1018.90 1019.25 1019.62 1019.98 1020.34 1020.67 1020.98 1021.24 1021.46 1021.61 1021.71 1021.73 1021.69 1021.58 1021.41 1021.19 1020.94 1020.67 1020.41 1020.16 1019.95 1019.78
1016.06 1016.13 1016.27 1016.47 1016.75 1017.08 1017.45 1017.80 1018.12 1018.35 1018.50 1018.54 1018.50 1018.41 1018.30 1018.21 1018.17 1018.21 1018.34 1018.55 1018.84 1019.17 1019.54 1019.93 1020.31 1020.68 1021.03 1021.36 1021.67 1021.94 1022.18 1022.36 1022.48 1022.54 1022.52 1022.43 1022.28 1022.08 1021.85 1021.62 1021.39 1021.18 1021.00
1016.30 1016.35 1016.47 1016.68 1016.98 1017.36 1017.78 1018.21 1018.59 1018.88 1019.04 1019.09 1019.02 1018.88 1018.71 1018.55 1018.46 1018.46 1018.56 1018.76 1019.04 1019.37 1019.73 1020.10 1020.47 1020.82 1021.17 1021.51 1021.84 1022.17 1022.48 1022.77 1023.01 1023.18 1023.28 1023.30 1023.25 1023.13 1022.96 1022.77 1022.57 1022.37 1022.19
1016.57 1016.60 1016.70 1016.90 1017.20 1017.60 1018.06 1018.54 1018.97 1019.30 1019.49 1019.54 1019.46 1019.28 1019.07 1018.87 1018.74 1018.70 1018.78 1018.95 1019.21 1019.52 1019.85 1020.18 1020.51 1020.82 1021.13 1021.45 1021.80 1022.17 1022.56 1022.95 1023.31 1023.62 1023.86 1024.01 1024.07 1024.06 1023.97 1023.84 1023.68 1023.51 1023.35
1016.81 1016.83 1016.91 1017.08 1017.37 1017.77 1018.25 1018.75 1019.22 1019.58 1019.80 1019.87 1019.79 1019.60 1019.37 1019.15 1019.00 1018.95 1019.00 1019.17 1019.40 1019.68 1019.97 1020.24 1020.50 1020.75 1021.00 1021.29 1021.63 1022.02 1022.47 1022.94 1023.42 1023.87 1024.25 1024.55 1024.74 1024.84 1024.86 1024.81 1024.70 1024.57 1024.43
1016.93 1016.96 1017.03 1017.18 1017.46 1017.85 1018.33 1018.84 1019.33 1019.73 1019.98 1020.07 1020.01 1019.84 1019.62 1019.41 1019.26 1019.21 1019.27 1019.42 1019.64 1019.89 1020.13 1020.35 1020.54 1020.71 1020.90 1021.13 1021.43 1021.82 1022.29 1022.83 1023.40 1023.96 1024.48 1024.91 1025.24 1025.46 1025.58 1025.61 1025.58 1025.51 1025.39
1016.90 1016.96 1017.03 1017.18 1017.43 1017.81 1018.29 1018.81 1019.32 1019.74 1020.03 1020.15 1020.13 1020.00 1019.81 1019.63 1019.51 1019.49 1019.57 1019.74 1019.95 1020.18 1020.39 1020.56 1020.68 1020.77 1020.88 1021.04 1021.29 1021.65 1022.12 1022.68 1023.30 1023.94 1024.55 1025.09 1025.53 1025.87 1026.09 1026.22 1026.27 1026.26 1026.20
1016.72 1016.83 1016.92 1017.06 1017.31 1017.68 1018.15 1018.69 1019.21 1019.66 1019.99 1020.16 1020.19 1020.11 1019.97 1019.84 1019.77 1019.79 1019.90 1020.09 1020.32 1020.55 1020.74 1020.86 1020.93 1020.97 1021.00 1021.09 1021.27 1021.56 1021.99 1022.54 1023.17 1023.84 1024.50 1025.11 1025.63 1026.06 1026.37 1026.59 1026.72 1026.78 1026.79
Thickness
5772 5772 5771 5772 5771 5771 5770 5770 5770 5769 5769 5769 5768 5767 5767 5766 5766 5765 5765 5765 5764 5764 5763 5763 5763 5764 5763 5763 5764 5764 5765 5765 5765 5765 5765 5765 5765 5765 5765 5765 5765 5765 5765
5773 5771 5769 5769 5769 5768 5768 5768 5767 5767 5766 5766 5765 5764 5764 5763 5763 5763 5762 5762 5762 5761 5761 5760 5760 5761 5761 5761 5761 5762 5762 5762 5763 5763 5763 5763 5763 5763 5763 5763 5763 5763 5763
5773 5770 5768 5767 5766 5766 5765 5765 5765 5764 5763 5763 5762 5761 5761 5760 5760 5760 5759 5759 5759 5758 5758 5757 5757 5757 5758 5758 5759 5759 5760 5760 5761 5761 5761 5761 5761 5760 5761 5761 5761 5761 5761
5772 5768 5766 5764 5764 5763 5763 5762 5762 5761 5761 5760 5759 5758 5758 5757 5756 5756 5756 5756 5755 5755 5755 5754 5754 5754 5754 5755 5756 5756 5757 5758 5759 5759 5760 5759 5759 5758 5758 5758 5758 5759 5759
5770 5766 5763 5762 5761 5760 5760 5760 5759 5758 5757 5757 5756 5755 5754 5753 5753 5752 5752 5752 5752 5752 5752 5751 5751 5751 5752 5752 5753 5754 5754 5755 5756 5756 5757 5756 5756 5755 5755 5756 5756 5756 5756
5767 5763 5760 5759 5759 5758 5757 5757 5756 5755 5754 5753 5752 5751 5751 5750 5750 5749 5749 5749 5749 5749 5749 5748 5748 5748 5748 5749 5749 5750 5751 5752 5753 5754 5754 5753 5753 5753 5753 5753 5753 5753 5753
5765 5762 5759 5757 5756 5755 5754 5754 5753 5752 5751 5750 5749 5748 5748 5747 5747 5746 5746 5746 5746 5746 5745 5745 5745 5745 5745 5746 5746 5747 5749 5750 5750 5751 5750 5750 5750 5750 5750 5750 5750 5750 5750
5764 5761 5757 5755 5754 5753 5752 5751 5750 5749 5748 5746 5745 5745 5744 5744 5744 5743 5743 5742 5742 5742 5742 5742 5742 5742 5742 5743 5744 5745 5746 5747 5748 5748 5747 5747 5746 5747 5747 5746 5746 5747 5747
5763 5760 5757 5754 5752 5750 5749 5748 5747 5746 5745 5743 5742 5741 5741 5741 5741 5740 5740 5739 5739 5739 5739 5739 5739 5739 5739 5740 5741 5742 5743 5743 5744 5744 5743 5743 5743 5743 5743 5743 5743 5743 5743
5759 5759 5756 5754 5751 5749 5747 5745 5744 5743 5742 5741 5740 5739 5739 5738 5738 5737 5736 5736 5736 5736 5736 5736 5736 5736 5737 5737 5738 5739 5739 5739 5739 5739 5739 5739 5740 5740 5740 5740 5739 5739 5739
5754 5755 5754 5752 5751 5748 5746 5744 5743 5742 5740 5739 5738 5738 5738 5737 5736 5735 5734 5733 5733 5733 5733 5733 5733 5733 5734 5734 5735 5736 5736 5736 5736 5735 5735 5735 5736 5736 5737 5736 5736 5735 5735
5748 5751 5752 5751 5749 5748 5746 5743 5742 5741 5739 5739 5738 5737 5736 5736 5735 5733 5732 5731 5731 5731 5731 5731 5731 5731 5731 5732 5732 5732 5732 5732 5732 5731 5730 5731 5731 5732 5732 5732 5732 5731 5731
5748 5748 5750 5750 5748 5746 5744 5743 5741 5740 5739 5738 5738 5737 5736 5734 5732 5731 5729 5728 5728 5728 5729 5729 5729 5729 5730 5730 5730 5729 5728 5728 5727 5726 5725 5726 5726 5727 5727 5727 5727 5727 5727
5746 5746 5748 5748 5747 5745 5743 5741 5739 5738 5737 5736 5736 5735 5734 5732 5731 5729 5728 5727 5726 5726 5726 5726 5726 5726 5727 5727 5726 5725 5724 5724 5722 5721 5720 5721 5722 5722 5722 5722 5722 5722 5723
5744 5744 5746 5747 5745 5743 5740 5739 5738 5737 5736 5735 5734 5733 5731 5730 5728 5727 5726 5725 5724 5724 5723 5723 5722 5722 5722 5722 5721 5721 5720 5719 5718 5717 5715 5716 5716 5716 5717 5717 5717 5717 5718
5743 5743 5744 5744 5743 5741 5738 5737 5735 5734 5733 5732 5731 5731 5729 5728 5726 5724 5723 5722 5721 5721 5720 5720 5718 5718 5717 5716 5715 5715 5715 5715 5714 5713 5711 5711 5710 5711 5711 5712 5712 5712 5712
5743 5743 5742 5741 5740 5738 5736 5735 5734 5732 5731 5730 5728 5728 5727 5725 5724 5722 5721 5719 5718 5718 5717 5716 5715 5714 5712 5711 5710 5711 5710 5710 5710 5709 5708 5706 5705 5705 5705 5706 5706 5706 5706
5741 5741 5740 5740 5737 5735 5734 5732 5732 5730 5728 5727 5725 5725 5724 5722 5721 5719 5718 5716 5715 5714 5713 5711 5710 5708 5706 5705 5705 5705 5706 5705 5705 5705 5704 5703 5702 5700 5700 5700 5700 5700 5700
5741 5740 5738 5737 5734 5733 5731 5730 5729 5728 5726 5724 5722 5721 5720 5719 5718 5716 5715 5713 5711 5710 5709 5707 5705 5703 5701 5700 5700 5700 5700 5700 5700 5700 5700 5699 5698 5697 5695 5694 5694 5694 5694
5741 5740 5737 5735 5733 5731 5728 5727 5725 5723 5722 5721 5719 5718 5717 5716 5715 5713 5711 5710 5708 5705 5704 5702 5700 5699 5697 5696 5696 5695 5695 5695 5695 5695 5695 5694 5693 5692 5691 5689 5688 5688 5688
5738 5736 5733 5731 5730 5728 5724 5721 5718 5717 5718 5717 5716 5715 5714 5713 5712 5710 5708 5706 5704 5702 5700 5698 5696 5694 5692 5693 5689 5686 5688 5690 5690 5690 5690 5689 5688 5687 5687 5685 5684 5683 5682
5734 5733 5732 5729 5728 5726 5723 5721 5719 5716 5715 5714 5714 5713 5712 5710 5709 5708 5705 5703 5701 5699 5696 5695 5693 5689 5688 5689 5685 5679 5675 5677 5681 5684 5683 5683 5682 5682 5682 5681 5680 5678 5677
5731 5731 5731 5728 5727 5725 5723 5720 5717 5714 5712 5710 5709 5708 5709 5708 5706 5705 5703 5701 5698 5696 5693 5691 5690 5687 5683 5685 5685 5679 5671 5667 5670 5674 5677 5677 5677 5676 5676 5675 5675 5673 5670
5730 5730 5729 5728 5725 5723 5722 5718 5713 5708 5705 5706 5706 5706 5706 5705 5703 5702 5700 5698 5696 5694 5691 5689 5687 5685 5682 5678 5680 5680 5679 5675 5667 5663 5667 5671 5672 5670 5670 5670 5668 5666 5664
5729 5728 5727 5726 5724 5722 5720 5717 5712 5709 5707 5707 5706 5704 5703 5702 5701 5699 5697 5695 5693 5691 5689 5687 5684 5683 5680 5677 5675 5675 5674 5673 5671 5663 5657 5660 5663 5664 5664 5664 5662 5661 5658
5727 5725 5723 5721 5719 5718 5717 5715 5711 5708 5705 5703 5702 5700 5699 5698 5697 5696 5694 5692 5691 5688 5686 5684 5682 5680 5678 5676 5674 5672 5670 5666 5664 5662 5656 5654 5654 5656 5658 5658 5657 5655 5653